Date String (YYYY-MM-DD hh:mm:ss) UTC,Instrument flags,absolute air pressure of the measurement (hPa),sample flow rate (lpm),inlet stack bypass flow (lpm),air temperature of the measurement (°C),ambient temperature measured by the external sensor (°C),aerosol sample conditioner tube jacket temperature (°C),OPC LED temperature (°C),internal box temperature (°C),relative humidity of the measurement (%),span deviation,mass concentration of particles derived from Lorenz-Mie calculation of OPC scattering (μg/m³),mass concentration of particles derived from Lorenz-Mie calculation of OPC scattering (μg/m³),mass concentration of particles derived from Lorenz-Mie calculation of OPC scattering (μg/m³)
DateTimeUTC,F1_M11,P_M11,Q1_M11,Q2_M11,T1_M11,T2_M11,T3_M11,T4_M11,T5_M11,U1_M11,ZSPAN_M11,X0_M11,X2_M11,X1_M11
2023-09-24 05:00:00,SystemResetWarning,0831.9,5.00,000.00,028.5,027.1,000.0,036.9,030.1,12.9,0000.0,0012.36,0004.62,0003.41
2023-09-24 05:01:00,SystemResetWarning,0831.9,5.00,000.00,028.5,027.2,000.0,036.9,030.1,12.8,0000.0,0013.94,0004.63,0003.41
2023-09-24 05:02:00,SystemResetWarning,0832.0,4.99,000.00,028.6,027.2,000.0,036.9,030.1,12.8,0000.0,0014.58,0004.71,0003.41
2023-09-24 05:03:00,SystemResetWarning,0831.9,5.00,000.00,028.6,027.2,000.0,036.9,030.1,12.8,0000.0,0014.72,0004.75,0003.41
2023-09-24 05:04:00,SystemResetWarning,0832.0,5.00,000.00,028.6,027.2,000.0,036.9,030.1,12.7,0000.0,0014.85,0004.76,0003.40
2023-09-24 05:05:00,SystemResetWarning,0831.9,5.00,000.00,028.6,027.2,000.0,036.9,030.1,12.7,0000.0,0014.98,0004.75,0003.41
2023-09-24 05:06:00,SystemResetWarning,0832.0,5.01,000.00,028.6,027.2,000.0,036.9,030.1,12.7,0001.8,0015.08,0004.73,0003.41
2023-09-24 05:07:00,SystemResetWarning,0832.0,5.00,000.00,028.6,027.2,000.0,036.9,030.1,12.7,0003.2,0015.43,0004.73,0003.41
2023-09-24 05:08:00,SystemResetWarning,0832.0,5.01,000.00,028.6,027.2,000.0,036.9,030.2,12.7,0003.2,0015.21,0004.75,0003.43
2023-09-24 05:09:00,SystemResetWarning,0831.9,5.00,000.00,028.6,027.2,000.0,036.9,030.2,12.6,0003.5,0015.02,0004.74,0003.43
2023-09-24 05:10:00,SystemResetWarning,0832.0,5.00,000.00,028.6,027.3,000.0,036.9,030.2,12.3,0003.5,0015.08,0004.77,0003.45
2023-09-24 05:11:00,SystemResetWarning,0831.9,5.00,000.00,028.7,027.3,000.0,036.9,030.3,12.2,0003.3,0015.30,0004.82,0003.47
2023-09-24 05:12:00,SystemResetWarning,0831.9,5.00,000.00,028.7,027.3,000.0,037.0,030.3,12.0,0003.1,0014.67,0004.84,0003.48
2023-09-24 05:13:00,SystemResetWarning,0831.9,4.99,000.00,028.7,027.3,000.0,037.0,030.3,12.1,0002.5,0013.94,0004.83,0003.48
2023-09-24 05:14:00,SystemResetWarning,0831.9,5.00,000.00,028.7,027.4,000.0,037.0,030.3,12.0,0002.1,0014.84,0004.79,0003.49
2023-09-24 05:15:00,SystemResetWarning,0831.9,5.01,000.00,028.7,027.4,000.0,037.0,030.4,11.9,0002.2,0016.35,0004.79,0003.52
2023-09-24 05:16:00,SystemResetWarning,0831.9,5.01,000.00,028.7,027.4,000.0,037.0,030.4,11.9,0001.8,0016.46,0004.81,0003.54
2023-09-24 05:17:00,SystemResetWarning,0831.9,4.99,000.00,028.7,027.4,000.0,037.0,030.4,11.9,0002.2,0016.49,0004.85,0003.58
2023-09-24 05:18:00,SystemResetWarning,0831.9,5.00,000.00,028.7,027.4,000.0,037.0,030.4,11.9,0002.4,0015.68,0004.84,0003.61
2023-09-24 05:19:00,SystemResetWarning,0831.9,5.01,000.00,028.8,027.4,000.0,037.0,030.3,11.8,0002.4,0015.64,0004.87,0003.61
2023-09-24 05:20:00,SystemResetWarning,0831.9,5.00,000.00,028.8,027.4,000.0,037.1,030.3,11.8,0001.9,0015.91,0004.88,0003.61
2023-09-24 05:21:00,SystemResetWarning,0831.9,5.00,000.00,028.8,027.4,000.0,037.1,030.3,11.8,0001.6,0016.11,0004.83,0003.59
2023-09-24 05:22:00,SystemResetWarning,0831.8,5.00,000.00,028.8,027.4,000.0,037.1,030.3,11.8,0001.1,0016.04,0004.73,0003.58
2023-09-24 05:23:00,SystemResetWarning,0831.8,4.99,000.00,028.8,027.4,000.0,037.1,030.3,11.8,0000.0,0015.25,0004.64,0003.55
2023-09-24 05:24:00,SystemResetWarning,0831.9,5.00,000.00,028.8,027.4,000.0,037.1,030.3,11.8,0000.0,0014.71,0004.60,0003.55
2023-09-24 05:25:00,SystemResetWarning,0831.9,5.00,000.00,028.7,027.4,000.0,037.1,030.3,11.8,0000.7,0013.48,0004.53,0003.51
2023-09-24 05:26:00,SystemResetWarning,0831.9,4.99,000.00,028.7,027.4,000.0,037.1,030.2,11.8,0001.9,0012.61,0004.51,0003.48
2023-09-24 05:27:00,SystemResetWarning,0831.9,4.99,000.00,028.7,027.4,000.0,037.1,030.2,11.8,0001.5,0012.62,0004.47,0003.43
2023-09-24 05:28:00,SystemResetWarning,0831.9,4.99,000.00,028.7,027.3,000.0,037.1,030.2,11.7,0000.3,0013.05,0004.40,0003.38
2023-09-24 05:29:00,SystemResetWarning,0831.9,5.02,000.00,028.7,027.3,000.0,037.1,030.3,11.6,0000.0,0012.78,0004.33,0003.33
2023-09-24 05:30:00,SystemResetWarning,0831.9,5.00,000.00,028.8,027.4,000.0,037.1,030.3,11.5,0000.0,0013.07,0004.28,0003.30
2023-09-24 05:31:00,SystemResetWarning,0831.9,4.99,000.00,028.8,027.4,000.0,037.1,030.3,11.5,0001.9,0013.26,0004.22,0003.27
2023-09-24 05:32:00,SystemResetWarning,0831.9,5.00,000.00,028.8,027.4,000.0,037.1,030.4,11.5,0002.5,0012.89,0004.26,0003.27
2023-09-24 05:33:00,SystemResetWarning,0831.9,4.99,000.00,028.8,027.4,000.0,037.1,030.4,11.4,0002.1,0013.59,0004.36,0003.27
2023-09-24 05:34:00,SystemResetWarning,0832.0,5.00,000.00,028.8,027.4,000.0,037.1,030.4,11.4,0001.6,0014.25,0004.42,0003.28
2023-09-24 05:35:00,SystemResetWarning,0832.0,5.00,000.00,028.8,027.5,000.0,037.2,030.4,11.4,0001.6,0014.17,0004.41,0003.28
2023-09-24 05:36:00,SystemResetWarning,0832.0,5.01,000.00,028.8,027.5,000.0,037.2,030.5,11.4,0002.3,0014.24,0004.43,0003.30
2023-09-24 05:37:00,SystemResetWarning,0832.0,4.98,000.00,028.8,026.8,000.0,037.1,030.4,11.4,0002.7,0013.97,0004.45,0003.31
2023-09-24 05:38:00,SystemResetWarning,0831.9,5.00,000.00,028.7,024.8,000.0,037.1,030.0,11.5,0002.8,0014.10,0004.45,0003.32
2023-09-24 05:39:00,SystemResetWarning,0831.8,5.02,000.00,028.6,024.2,000.0,037.0,029.8,11.5,0003.0,0013.29,0004.45,0003.33
2023-09-24 05:40:00,SystemResetWarning,0831.8,4.99,000.00,028.5,024.3,000.0,037.0,029.6,11.7,0002.9,0013.28,0004.45,0003.33
2023-09-24 05:41:00,SystemResetWarning,0831.8,5.00,000.00,028.4,024.7,000.0,036.9,029.6,11.8,0003.6,0013.73,0004.46,0003.33
2023-09-24 05:42:00,SystemResetWarning,0831.8,5.00,000.00,028.3,025.0,000.0,036.9,029.6,11.8,0000.7,0013.61,0004.47,0003.33
2023-09-24 05:43:00,SystemResetWarning,0831.8,5.01,000.00,028.3,025.4,000.0,036.9,029.7,11.9,0000.4,0013.40,0004.44,0003.33
2023-09-24 05:44:00,SystemResetWarning,0831.8,5.00,000.00,028.3,025.6,000.0,036.8,029.7,11.9,0002.4,0012.59,0004.36,0003.32
2023-09-24 05:45:00,SystemResetWarning,0831.8,5.00,000.00,028.3,025.9,000.0,036.8,029.7,11.9,0000.5,0011.99,0004.36,0003.31
2023-09-24 05:46:00,SystemResetWarning,0831.8,4.99,000.00,028.3,026.1,000.0,036.8,029.8,11.9,0001.6,0012.75,0004.40,0003.31
2023-09-24 05:47:00,SystemResetWarning,0831.8,5.00,000.00,028.3,026.3,000.0,036.8,029.8,11.8,0000.0,0013.64,0004.40,0003.31
2023-09-24 05:48:00,SystemResetWarning,0831.9,5.01,000.00,028.3,026.4,000.0,036.7,029.8,11.9,0000.0,0014.11,0004.38,0003.29
2023-09-24 05:49:00,SystemResetWarning,0831.9,5.01,000.00,028.3,026.5,000.0,036.7,029.8,11.9,0000.0,0013.54,0004.38,0003.29
2023-09-24 05:50:00,SystemResetWarning,0831.8,4.99,000.00,028.3,026.6,000.0,036.7,029.9,11.9,0000.0,0014.16,0004.40,0003.29
2023-09-24 05:51:00,SystemResetWarning,0831.8,5.00,000.00,028.3,026.7,000.0,036.7,029.9,11.8,0000.0,0014.52,0004.43,0003.29
2023-09-24 05:52:00,SystemResetWarning,0831.8,5.00,000.00,028.3,026.7,000.0,036.7,029.9,11.8,0000.0,0014.15,0004.39,0003.29
2023-09-24 05:53:00,SystemResetWarning,0831.8,5.00,000.00,028.3,026.8,000.0,036.7,029.9,11.8,0000.0,0013.87,0004.36,0003.29
2023-09-24 05:54:00,SystemResetWarning,0831.8,4.99,000.00,028.3,026.9,000.0,036.7,029.9,11.8,0000.0,0014.58,0004.36,0003.28
2023-09-24 05:55:00,SystemResetWarning,0831.9,5.00,000.00,028.4,026.9,000.0,036.7,030.0,11.8,0000.0,0016.12,0004.35,0003.27
2023-09-24 05:56:00,SystemResetWarning,0831.9,5.00,000.00,028.4,026.9,000.0,036.7,030.0,11.8,0000.0,0015.97,0004.31,0003.27
2023-09-24 05:57:00,SystemResetWarning,0831.9,5.01,000.00,028.4,027.0,000.0,036.7,030.0,11.7,0000.0,0015.76,0004.23,0003.26
2023-09-24 05:58:00,SystemResetWarning,0832.0,5.00,000.00,028.4,027.0,000.0,036.7,030.0,11.7,0000.0,0014.88,0004.22,0003.25
2023-09-24 05:59:00,SystemResetWarning,0831.9,5.00,000.00,028.4,027.0,000.0,036.7,030.0,11.8,0000.0,0015.33,0004.19,0003.23
